Location: Spruce Knob
(38.6995°N, 79.5330°W)
Time: 19:30:23
(UTC-04:00)

Transit 2A - Pass Details

Date: 16 August 2022
Orbit: 601 x 956 km, 66.7° (Epoch: 27 September)

Event Time Altitude Azimuth Distance (km) Brightness Sun altitude
Rises 20:38:37 0° 331° (NNW) 2,863 9.9 -5.9°
Reaches altitude 10° 20:40:50 10° 332° (NNW) 1,972 9.0 -6.3°
Maximum altitude 20:45:14 90° 357° (N) 640 5.6 -7.1°
Drops below altitude 10° 20:49:57 10° 153° (SSE) 2,095 7.8 -7.9°
Enters shadow 20:51:31 - 153° (SSE) 2,723 8.4 -8.2°
